Location: Newark
(23.3970°S, 47.6010°W)
Time: 07:30:15
(UTC+00:00)

deb Explorer IX - Pass Details

Date: 23 February 2020
Orbit: 547 x 1100 km, 38.8° (Epoch: 06 April)

Event Time Altitude Azimuth Distance (km) Brightness Sun altitude
Rises 04:34:12 0° 236° (SW) 3,900 - -52.4°
Reaches altitude 10° 04:37:31 10° 223° (SW) 2,964 - -52.0°
Maximum altitude 04:43:28 26° 169° (S) 2,010 - -51.3°
Exits shadow 04:49:02 11° 116° (ESE) 2,815 ? -50.6°
Drops below altitude 10° 04:49:16 10° 115° (ESE) 2,876 ? -50.6°
Sets 04:52:25 0° 102° (ESE) 3,764 ? -50.2°
